COSMOS 1275 DEB

Satellite information

Favourite Embed

Satellite Type and Status

DEBRISIN ORBIT

Key statistics

Satellite COSMOS 1275 DEB at a glance.

Uptime

16168

Days in orbit

Revolutions

≈ 13.8

Per day

Orbit

LEO

Low Earth Orbit

Inclination

83.0

Latest

Satellite identification and parameters

Extended collection of information and parameters for COSMOS 1275 DEB.

Object identification

Identified? True

Debris? True

Object name: COSMOS 1275 DEB

International designator: 1981-053NG

Object number (NORAD): 39946

Object ID (CCSDS): 39946

Country: COMMONWEALTH OF INDEPENDENT STATES (CIS)

Current information (Y/N): Y

RCS size: SMALL

Orbital parameters

Period: 104.264 minutes

Inclination: 82.9517 deg

SMA: 7338.086 km

Apoapsis: 985.94 km

Periapsis: 933.961 km

RAAN: 43.7227 deg

Eccentricy: 0.0035417

Argument of periapsis: 30.7751 deg

Mean anomaly: 329.5475 deg

Mean motion: 13.81111052 rev/day

Mean motion (dot): 0.00000189 rev/day2

B* drag term: 0.00016306 1/REarth

Two-line elements (TLE)

Creation date: Aug. 16, 2025, 5:54 p.m.

Reference frame: TEME

Reference center: EARTH

Epoch: Aug. 16, 2025, 5:45 a.m. UTC

TLE line 0: 0 COSMOS 1275 DEB

TLE line 1: 1 39946U 81053NG 25228.23992320 .00000189 00000-0 16306-3 0 9994

TLE line 2: 2 39946 82.9517 43.7227 0035417 30.7751 329.5475 13.81111052883886

Live tracking on map

Real-time ground track for satellite COSMOS 1275 DEB.

In-orbit conjunctions

A list of the most updated potential collisions computed for object COSMOS 1275 DEB.

Target Orbit TCA Probability of collision Miss distance Type
SL-14 R/B LEO 2024-11-13 00:08:51 0.0001186303 772.0 (m) ROCKET BODY

Associated space launch

Navigation satellite providing location information for the Tsiklon-B navigation system

COSMOS 1275 DEB was lifted into orbit during the mission ‘Kosmos-3M | Parus 27’, on board a Kosmos-3M space rocket.

The launch took place on June 4, 1981, 3:41 p.m. from 132/2.

For more information about the launch, click the button.

Launch to space Kosmos-3M | Parus 27
Kosmos-3M | Parus 27

Agency: N/A

Status: Launch Successful

Launch date: June 4, 1981, 3:41 p.m. UTC

Rocket: Kosmos-3M

Launch pad: 132/2

Location: Plesetsk Cosmodrome, Russian Federation

...

Latest news about this satellite

There are no fresh news available about this satellite. Check back as we update our databases every day.


Newsletter sign-up

Weekly statistics, charts and insights to help you stay on top of the space industry.